Miscellaneous Local Product
Issued by NWS Hastings, NE

Home | Current Version | Previous Version | Graphics & Text | Print | Product List | Glossary On
Versions: 1 2 3 4 5 6 7 8 9 10 11 12 13 14 15 16 17 18 19 20 21 22 23 24 25 26 27 28 29 30 31 32 33 34 35 36 37 38 39 40 41 42 43 44 45 46 47 48 49 50
000
AXUS43 KGID 030002
MISGRI

GID CWA HOURLY WEATHER ROUNDUP
NATIONAL WEATHER SERVICE HASTINGS NE
600 PM CST MON MAR 02 2015

NOTE: "FAIR" INDICATES FEW OR NO CLOUDS BELOW 12,000 FEET WITH NO
SIGNIFICANT WEATHER AND/OR OBSTRUCTIONS TO VISIBILITY.

...SOUTH CENTRAL NEBRASKA...

CITY           SKY/WX    TMP DP  RH WIND       PRES   REMARKS
GRAND ISLAND   CLOUDY    34  15  46 S20G26    30.00F WCI  23
HASTINGS       CLOUDY    34  14  43 S15G22    29.98F WCI  24
KEARNEY        CLOUDY    34  16  47 S21G26    29.96F WCI  22
ORD            CLOUDY    35  13  40 S18G28    29.94F WCI  24
YORK           CLOUDY    37  18  44 S18G24    30.04F WCI  27
AURORA         CLOUDY    37  17  45 S22G29    30.01F WCI  25
LEXINGTON      CLOUDY    34  20  56 S21G26    29.91F WCI  23
HOLDREGE       CLOUDY    33  17  51 S24       29.95F WCI  20
HEBRON         CLOUDY    36  14  41 S15G22    30.06F WCI  26

...NEBRASKA PANHANDLE...

CITY           SKY/WX    TMP DP  RH WIND       PRES   REMARKS
CHADRON        CLOUDY    45  25  45 S8        29.67F
ALLIANCE       PTCLDY    32  23  69 SE18      29.70F WCI  20
SCOTTSBLUFF    PTCLDY    42  26  53 SE21      29.66F
SIDNEY         CLOUDY    31  24  75 S16       29.69F WCI  20

...WESTERN AND NORTH CENTRAL NEBRASKA...

CITY           SKY/WX    TMP DP  RH WIND       PRES   REMARKS
VALENTINE      CLOUDY    40  20  44 S18G29    29.79F WCI  31
AINSWORTH      MOCLDY    36  19  49 S16G23    29.82F WCI  26
ONEILL         MOCLDY    38  17  43 S18G24    29.93F WCI  28
BROKEN BOW     CLOUDY    35  19  52 S20G33    29.90F WCI  24
IMPERIAL         N/A     31  24  75 S15       29.80F WCI  20
NORTH PLATTE   CLOUDY    33  21  61 S15       29.85F WCI  23
MCCOOK         CLOUDY    33  23  66 S16G23    29.88F WCI  23

...EASTERN NEBRASKA...

CITY           SKY/WX    TMP DP  RH WIND       PRES   REMARKS
NORFOLK        CLOUDY    38  17  42 S17G28    30.01F WCI  28
SO SIOUX CITY  CLOUDY    35  23  61 SE15      30.08F WCI  25
TEKAMAH        CLOUDY    38  21  50 S17       30.10F WCI  28
COLUMBUS       MOCLDY    37  16  41 S15G22    30.05F WCI  28
ALBION         CLOUDY    38  15  38 S14G24    29.99F WCI  30
OMAHA EPPLEY   CLOUDY    38  20  48 SE17      30.11F WCI  28
OFFUTT AFB     MOCLDY    37  21  52 SE14      30.11F WCI  28
MILLARD        MOCLDY    39  20  47 SE14      30.12F WCI  30
LINCOLN        MOCLDY    38  18  44 S14G28    30.09F WCI  30
NEBRASKA CITY  MOCLDY    37  13  36 S16       30.13F WCI  28
BEATRICE       CLOUDY    37  18  46 S14       30.10F WCI  28
FALLS CITY     CLOUDY    36  18  48 SE14G21   30.14F WCI  27

...NORTHERN KANSAS...

CITY           SKY/WX    TMP DP  RH WIND       PRES   REMARKS
GOODLAND       CLOUDY    30  28  92 S29G38    29.76F FOG     WCI  15
HILL CITY      CLOUDY    33  21  61 S14       29.95F WCI  23
NORTON         CLOUDY    34  18  51 SE15      29.92F WCI  24
PHILLIPSBURG   CLEAR     36  21  55 SE12G17   29.98F WCI  27
SMITH CENTER   CLEAR     32  16  51 SE20G26   30.00F WCI  20
BELOIT         CLEAR     34  18  51 SE13G20   30.05F WCI  25
HAYS           CLOUDY    32  16  51 S17       29.99F WCI  21
RUSSELL        CLOUDY    33  20  58 S18       30.01F WCI  22
CONCORDIA      CLOUDY    33  18  53 S17       30.06F WCI  22
SALINA         CLOUDY    35  20  54 S14       30.10F WCI  26
TOPEKA         CLOUDY    35  20  54 SE13      30.18F WCI  26



USA.gov is the U.S. government's official web portal to all federal, state and local government web resources and services.